Вернуться в каталог

SS 3

АктивенНаукаLEO
NORAD 10594·PAYLOAD·🇺🇸 United States

Запущен Dec 8, 1977 с Vandenberg Space Force Base

Loading…

Ближайшие Пролёты (ближайшие 24 часа)

TLE

СвежийSource: Space-Track

Эпоха: Sep 14, 2026, 07:57 UTC

1 10594U 77112F   26257.33138664  .00000172  00000-0  74610-4 0  9995
2 10594  63.3315 279.2069 0472840 165.1381 196.4146 14.03196299379809

Отслеживайте SS 3 в реальном времени с AllMySat

Download on the App Store